Temperature
15 14 15 15 14 14 14 13 13 13 12 11 11 11 11 11 11 11 11 11 11 11 11 10 11 11 12 12 11 11 12 12 12 12 12 12 11 11 11 12 12 11 12
15 14 14 15 14 14 13 13 13 12 11 11 11 11 11 11 11 11 11 11 11 11 11 10 10 11 11 11 11 11 12 12 12 12 12 11 11 12 12 11 11 11 12
15 14 14 14 14 14 13 13 12 11 11 11 11 11 12 12 11 11 11 10 10 10 10 10 10 11 10 10 11 11 12 12 12 12 11 11 11 11 11 11 11 11 11
15 14 14 14 14 13 13 13 11 11 11 11 12 12 12 11 11 10 10 10 10 10 10 10 12 12 10 11 11 11 13 13 12 12 11 11 11 10 10 10 10 11 11
14 14 14 14 14 13 13 12 12 11 11 11 11 11 11 11 11 10 10 10 10 10 10 12 14 13 13 13 12 13 13 13 12 11 11 11 11 11 10 10 10 10 10
14 14 14 14 13 13 13 12 11 11 11 11 11 11 11 11 10 10 10 10 10 10 12 14 14 14 14 13 13 13 13 12 12 11 11 11 11 11 12 11 11 11 10
14 14 13 13 13 13 13 12 11 11 11 11 11 11 11 11 11 10 10 10 11 11 12 13 13 13 13 13 13 13 13 12 11 11 11 11 11 12 11 12 12 11 10
14 14 13 13 13 14 13 13 12 11 11 11 11 11 11 10 10 10 11 10 11 11 12 12 13 13 13 13 12 12 13 13 12 12 12 12 12 12 12 12 12 12 11
14 14 14 14 15 15 15 16 14 12 11 11 11 11 10 11 10 10 10 11 11 11 12 12 13 13 13 13 12 12 13 13 13 12 13 12 12 12 12 12 12 12 12
15 15 15 15 15 14 16 18 16 14 12 11 11 12 12 11 10 10 10 10 10 11 12 12 13 13 13 13 12 13 13 13 12 12 13 12 13 12 12 12 12 12 12
16 16 16 16 16 15 15 16 16 15 14 12 12 13 12 10 10 10 10 10 11 11 12 13 13 13 13 13 13 13 13 13 12 12 12 13 12 12 12 11 11 11 11
18 18 18 18 17 16 17 16 16 14 14 12 11 12 11 10 10 10 11 11 11 12 12 13 13 13 13 12 12 13 13 13 13 13 12 13 12 12 12 12 11 11 11
18 18 19 18 17 17 17 16 16 15 14 13 12 12 12 12 11 11 10 11 11 12 12 12 12 13 13 13 12 12 13 13 13 13 12 13 12 12 12 12 12 11 11
19 19 19 19 18 18 18 17 17 16 16 15 15 14 13 12 12 11 10 11 11 11 11 12 12 12 13 13 13 12 12 12 13 13 13 13 12 12 12 12 12 11 11
19 19 19 19 19 19 18 18 17 17 17 16 15 14 14 13 12 12 11 11 12 11 11 11 11 11 11 12 12 12 13 13 13 13 13 13 12 12 12 12 12 11 11
20 20 19 19 19 19 19 18 18 17 17 16 15 15 14 14 13 12 12 12 12 12 11 11 10 10 11 11 11 12 13 12 13 13 12 12 12 12 12 12 12 11 11
21 20 19 19 19 20 20 19 18 18 17 17 16 15 15 14 13 13 13 12 12 12 11 11 11 11 11 11 11 11 11 12 12 12 12 12 12 12 12 12 12 11 11
21 21 20 20 20 20 20 20 19 18 18 17 17 16 15 14 14 13 13 12 12 11 11 10 10 10 10 10 10 10 11 11 11 12 12 12 12 12 12 12 12 12 11
22 22 21 21 20 20 20 20 20 19 18 18 17 16 16 15 14 13 13 13 12 11 11 10 10 9 9 9 9 10 10 10 11 12 12 12 12 12 12 11 12 11 11
22 21 20 20 21 21 21 20 19 19 19 19 18 18 16 15 15 14 13 13 12 11 10 10 10 9 9 9 9 9 10 10 10 10 11 12 12 12 12 11 11 11 11
22 21 21 21 21 21 21 20 20 20 20 20 19 18 17 17 16 15 14 13 13 12 11 10 10 10 9 9 9 9 9 9 9 10 11 12 11 12 11 11 11 11 11
20 21 22 21 21 21 21 20 19 19 19 20 20 19 19 18 17 16 15 14 13 12 11 10 10 10 9 9 9 9 9 10 10 10 11 11 11 11 11 10 10 11 11
20 19 20 21 21 21 21 19 19 19 20 20 20 21 20 19 18 17 16 15 14 12 12 11 10 10 10 9 9 9 9 10 10 10 10 10 10 10 10 10 10 10 11
19 19 19 20 20 20 19 19 20 20 20 21 20 20 20 19 19 18 17 15 14 13 12 11 11 11 10 10 10 9 9 10 10 10 10 9 9 10 10 10 11 11 11
20 20 20 21 21 21 21 21 20 20 20 20 20 20 20 19 19 18 17 16 15 14 13 12 11 11 11 11 11 10 10 9 9 9 9 9 9 9 10 11 11 11 11
20 20 20 21 21 21 21 21 21 21 21 21 21 20 19 19 19 18 17 16 15 15 14 13 12 11 12 11 11 11 9 9 9 9 9 9 9 9 9 10 11 11 11
Wind_Speed
9 14 14 13 16 15 12 11 10 8 8 7 6 5 7 8 8 8 7 8 8 8 7 7 7 7 7 9 9 10 11 11 11 12 12 12 8 9 10 10 9 9 10
11 15 14 14 15 13 11 10 10 9 6 5 6 6 7 9 8 7 7 6 7 6 7 7 7 6 7 9 9 10 10 10 9 9 6 6 8 8 8 9 10 9 10
11 14 14 12 13 13 11 10 11 8 4 4 5 6 7 8 8 7 6 7 7 6 7 6 6 5 7 7 8 8 8 8 7 5 3 4 7 8 7 8 8 10 12
11 12 11 10 13 12 10 10 9 8 5 5 6 6 7 8 8 6 6 7 6 5 6 5 5 4 6 6 7 7 7 7 5 2 1 4 6 9 9 9 9 10 10
11 10 7 9 13 12 10 10 8 6 5 5 5 6 6 7 8 6 5 5 5 5 5 4 4 3 5 5 5 6 6 5 2 1 4 4 5 10 10 10 11 12 11
10 9 9 11 11 9 10 9 8 8 7 6 5 5 5 6 7 6 5 4 4 5 4 3 3 3 3 3 4 5 5 2 3 3 4 2 6 10 9 8 10 11 11
9 8 10 10 9 8 9 10 9 7 7 7 6 4 4 5 5 6 4 4 5 5 4 3 3 3 3 3 3 5 4 1 2 3 3 4 7 6 7 8 9 9 9
9 8 9 9 9 8 8 9 9 8 8 7 6 4 3 4 5 5 3 3 5 4 2 2 3 3 3 2 2 3 2 1 2 2 2 4 4 4 5 6 7 7 7
9 9 8 9 9 8 9 9 8 8 8 8 7 5 4 4 5 5 5 4 5 3 2 1 2 4 4 3 2 3 2 2 2 1 1 2 1 1 3 5 5 6 6
9 9 9 8 8 9 10 10 9 7 8 9 7 6 5 5 4 4 4 6 5 3 2 1 2 2 2 1 4 5 3 3 3 1 1 2 2 1 3 3 3 4 3
10 10 9 9 9 8 8 10 9 8 10 10 8 8 7 5 4 5 5 6 4 3 2 2 1 1 2 3 4 6 6 4 4 2 1 2 3 2 2 3 3 3 3
14 13 12 11 10 9 8 9 11 12 12 12 11 10 9 6 5 3 4 5 4 3 2 1 1 2 5 5 6 7 7 4 5 5 3 2 6 5 4 4 5 6 6
16 15 14 14 13 11 9 10 10 11 11 11 12 11 9 8 7 7 6 6 6 6 5 5 5 5 5 5 5 6 6 5 5 6 6 4 7 7 7 7 7 8 9
16 17 16 16 15 14 13 12 11 11 11 11 13 13 11 8 8 8 7 7 6 6 6 6 6 6 6 6 6 7 7 6 6 6 7 7 8 9 10 11 11 10 10
17 17 17 17 18 16 15 13 13 13 14 14 13 14 13 10 9 9 8 9 8 8 7 7 7 7 7 7 7 7 8 9 9 8 8 8 9 11 12 14 14 14 13
19 19 18 18 19 18 16 15 13 14 14 14 14 15 16 14 11 10 9 10 10 10 10 9 9 7 7 7 8 9 9 10 10 10 10 10 11 13 15 17 17 17 17
20 19 20 19 19 19 19 18 14 14 14 14 16 18 19 18 15 12 11 11 11 12 12 11 10 9 8 8 9 10 9 11 11 12 12 12 12 14 17 19 19 20 19
19 20 20 17 18 19 18 16 14 15 15 15 17 18 21 21 19 14 12 12 13 13 11 10 10 10 10 10 10 10 9 10 12 14 14 14 14 14 16 20 22 22 22
22 21 20 19 19 19 17 15 15 15 15 16 17 18 20 22 22 18 13 13 14 12 11 11 10 10 10 11 11 11 11 11 13 13 14 16 16 16 16 17 20 21 23
21 21 20 18 19 18 15 13 13 15 16 16 16 18 20 20 22 19 15 15 14 13 13 12 13 12 11 11 11 11 12 13 13 14 15 15 16 17 17 17 16 17 21
20 20 21 20 20 16 14 14 13 16 15 15 15 19 20 21 21 19 16 17 16 15 15 15 14 15 13 11 9 10 13 15 16 15 14 14 14 14 15 15 14 13 12
19 20 19 19 19 18 16 15 12 10 11 15 15 18 21 22 21 17 19 16 16 15 17 17 16 13 13 12 9 7 8 11 13 11 11 11 12 10 10 10 10 10 10
12 15 15 16 16 17 17 14 12 11 11 12 15 16 18 19 20 19 20 18 17 16 15 17 17 18 15 13 13 10 6 7 4 6 7 8 8 8 9 8 9 10 10
8 7 9 10 11 12 14 15 18 15 15 16 13 13 14 17 19 20 20 19 18 16 17 17 17 16 16 13 10 13 13 10 8 6 8 8 10 10 11 10 9 9 10
10 6 5 6 9 11 13 16 16 17 16 14 13 13 14 15 17 19 19 19 18 17 18 19 17 17 16 15 12 9 11 12 12 12 12 11 11 11 12 12 9 9 9
14 11 7 5 5 6 10 14 18 20 18 16 15 14 13 12 14 18 19 19 19 18 19 19 18 18 16 14 13 12 11 10 10 11 14 15 14 12 12 11 10 10 7
Wind_Direction
155 153 161 150 137 139 137 125 121 120 117 127 124 106 99 88 77 71 54 60 65 70 74 69 72 90 92 80 81 94 91 79 71 59 48 40 42 46 40 33 8 36 31
152 154 155 148 141 138 131 127 122 118 129 140 118 113 99 92 83 73 71 73 78 76 80 73 73 87 98 93 94 103 97 82 73 62 49 61 53 47 43 41 32 40 33
152 154 156 159 146 137 133 135 130 124 152 132 130 121 107 106 89 73 70 73 78 76 82 82 84 104 105 107 107 105 99 87 74 60 343 30 66 67 64 58 46 42 39
148 155 157 153 148 142 141 140 132 140 170 142 138 132 116 112 109 88 76 77 90 104 102 101 102 118 114 112 113 110 103 89 69 335 345 44 64 70 58 51 44 39 42
146 151 133 137 149 148 147 140 149 167 172 150 128 115 108 109 110 102 87 93 110 113 117 120 117 131 124 115 110 117 101 87 67 320 57 44 59 72 56 43 41 41 35
147 147 124 132 138 147 150 152 169 185 179 160 127 109 102 105 110 114 111 120 115 121 121 133 138 153 120 112 132 120 103 95 265 76 73 59 64 66 61 56 54 48 43
150 146 136 132 138 159 170 166 183 188 177 162 151 139 123 109 111 119 134 143 138 134 140 153 174 181 150 133 138 125 112 39 311 85 78 64 72 77 78 63 55 53 49
161 160 152 151 155 171 188 167 188 190 186 170 169 175 141 121 115 100 105 110 127 126 136 151 189 200 188 162 154 132 111 290 299 63 71 67 76 84 70 69 64 55 51
173 173 176 178 175 182 185 164 198 190 186 170 187 185 153 136 122 88 67 103 109 106 116 156 198 198 199 191 196 186 159 289 303 38 114 107 49 54 47 52 56 60 53
185 189 189 192 199 201 193 178 196 180 177 166 181 154 133 130 136 126 107 90 92 95 113 152 170 168 185 234 241 218 197 225 238 199 181 45 316 1 4 18 20 30 34
201 202 201 204 211 212 200 182 195 187 169 174 179 159 168 192 179 165 106 94 100 113 126 145 156 185 211 226 226 210 220 220 228 230 228 11 284 259 295 322 335 338 330
208 208 206 210 214 208 203 199 205 200 199 202 202 194 205 204 194 190 144 136 131 140 149 146 135 210 219 213 186 199 227 227 232 231 235 313 292 261 256 282 299 299 296
209 208 212 212 211 207 204 208 209 209 210 210 208 207 208 207 202 206 202 195 198 192 200 193 199 214 220 222 220 228 238 243 242 235 234 261 289 284 271 270 275 283 285
210 212 209 217 212 208 206 208 211 212 212 212 211 210 210 211 212 213 213 208 216 217 217 219 226 220 223 227 232 241 246 248 250 253 244 237 265 279 277 276 277 273 275
218 219 214 210 216 209 209 210 212 213 214 215 214 214 214 216 215 212 211 207 210 216 222 227 236 239 238 235 232 240 248 250 250 253 257 242 249 257 264 270 273 273 267
222 223 218 212 215 212 212 214 215 216 217 219 220 218 218 220 220 215 215 216 219 221 224 230 237 243 247 244 242 240 246 249 251 251 256 253 241 245 251 257 263 268 269
226 226 222 217 214 213 214 217 218 218 217 219 220 221 219 221 222 220 222 222 224 226 227 231 238 243 247 247 249 253 254 255 252 252 253 255 250 241 242 250 254 257 260
232 230 227 221 219 217 218 219 219 221 220 221 221 222 221 220 222 223 226 230 230 229 230 235 240 242 244 247 249 250 253 257 259 257 253 251 252 252 243 242 246 250 253
233 232 228 221 221 219 218 222 223 224 226 226 225 225 223 221 220 222 226 229 233 234 234 237 240 244 248 249 255 258 256 256 258 258 255 252 250 249 252 248 239 244 249
241 238 235 227 225 220 215 219 225 228 229 228 228 228 226 224 223 223 229 229 227 231 233 233 238 239 242 251 257 261 263 264 263 260 256 254 252 249 251 256 254 250 245
242 237 233 228 224 217 212 211 217 227 231 230 231 232 230 227 224 222 226 229 227 229 232 232 233 238 237 239 251 260 264 262 259 256 254 254 254 251 253 256 259 263 259
249 238 234 231 227 218 216 214 217 231 234 232 231 230 228 228 226 222 223 226 226 227 232 233 234 238 241 234 232 250 269 269 254 252 251 249 249 246 244 249 253 254 257
268 258 246 240 236 227 221 219 223 233 235 235 231 230 229 230 229 227 227 227 226 226 230 229 229 229 232 229 224 227 234 246 261 228 229 233 236 237 239 251 264 256 249
327 288 264 256 251 243 231 226 225 226 234 238 239 238 231 228 227 227 227 228 227 225 228 229 227 227 227 229 220 226 238 262 260 266 246 241 250 248 250 261 257 254 254
15 353 307 273 253 241 230 228 232 239 247 252 247 241 235 228 226 226 225 225 226 226 228 228 226 224 223 220 218 214 223 233 239 250 257 253 249 250 258 259 260 262 260
23 21 15 352 314 279 248 236 232 237 243 245 243 240 238 230 224 223 222 222 224 225 228 229 228 225 221 217 219 219 219 222 220 223 242 253 254 251 251 254 257 261 252
Height
1527 1528 1530 1531 1532 1533 1533 1532 1532 1532 1531 1531 1532 1532 1533 1532 1531 1530 1530 1529 1528 1527 1527 1526 1525 1525 1526 1526 1525 1524 1524 1523 1523 1523 1523 1523 1521 1520 1518 1517 1518 1519 1516
1527 1529 1529 1531 1532 1532 1532 1531 1532 1531 1532 1533 1533 1533 1533 1531 1531 1531 1530 1529 1528 1527 1527 1527 1525 1525 1526 1526 1525 1524 1524 1524 1524 1524 1525 1525 1523 1521 1519 1518 1518 1518 1517
1526 1528 1529 1531 1531 1532 1531 1531 1531 1531 1532 1534 1534 1534 1533 1531 1531 1531 1530 1529 1528 1528 1528 1527 1525 1525 1525 1524 1524 1524 1524 1524 1524 1525 1525 1526 1524 1521 1520 1519 1518 1517 1516
1526 1528 1530 1530 1531 1532 1531 1530 1531 1532 1533 1534 1534 1533 1533 1532 1532 1532 1530 1529 1528 1528 1527 1526 1525 1525 1525 1524 1524 1525 1525 1524 1525 1525 1526 1526 1526 1523 1522 1520 1519 1518 1517
1526 1528 1530 1530 1531 1531 1531 1531 1531 1532 1533 1533 1534 1533 1534 1533 1532 1531 1529 1528 1528 1527 1526 1526 1525 1525 1525 1525 1525 1526 1526 1525 1525 1526 1527 1526 1527 1524 1524 1523 1522 1520 1520
1527 1528 1528 1530 1530 1531 1530 1530 1530 1532 1533 1533 1533 1533 1534 1533 1532 1531 1529 1529 1528 1528 1527 1526 1526 1526 1525 1526 1526 1526 1526 1526 1526 1527 1528 1527 1528 1525 1524 1522 1520 1520 1520
1527 1528 1528 1529 1530 1530 1530 1529 1530 1532 1532 1532 1532 1533 1533 1533 1532 1530 1529 1529 1529 1528 1528 1527 1527 1526 1526 1526 1526 1526 1526 1527 1528 1528 1528 1529 1528 1525 1523 1522 1521 1521 1522
1527 1527 1528 1528 1529 1529 1528 1529 1530 1531 1531 1531 1531 1531 1531 1531 1531 1530 1529 1530 1529 1528 1528 1528 1528 1527 1527 1527 1527 1527 1527 1527 1528 1529 1529 1528 1527 1526 1524 1522 1521 1521 1521
1526 1526 1527 1528 1527 1527 1527 1528 1529 1530 1530 1530 1530 1530 1530 1530 1530 1530 1530 1530 1529 1528 1528 1527 1527 1528 1528 1528 1528 1528 1527 1527 1528 1529 1528 1528 1527 1526 1525 1523 1522 1520 1519
1525 1526 1527 1527 1527 1527 1527 1527 1528 1528 1529 1529 1530 1529 1528 1528 1528 1529 1530 1529 1528 1527 1527 1527 1527 1527 1528 1528 1528 1527 1527 1527 1529 1529 1529 1528 1527 1526 1526 1524 1522 1520 1519
1524 1525 1525 1525 1525 1526 1526 1526 1526 1527 1527 1528 1528 1528 1527 1528 1528 1528 1527 1526 1526 1526 1526 1526 1526 1526 1527 1527 1527 1527 1527 1527 1528 1528 1528 1528 1526 1525 1525 1524 1521 1519 1518
1521 1522 1523 1523 1524 1524 1525 1525 1525 1526 1526 1527 1527 1526 1526 1526 1526 1526 1524 1524 1525 1525 1525 1525 1525 1525 1525 1526 1526 1526 1526 1526 1526 1526 1527 1526 1525 1523 1523 1522 1521 1519 1518
1520 1521 1522 1523 1523 1524 1524 1524 1524 1524 1525 1525 1525 1525 1525 1524 1524 1523 1523 1523 1523 1523 1523 1523 1523 1523 1523 1524 1524 1525 1525 1525 1525 1524 1524 1524 1524 1523 1522 1520 1518 1517 1517
1518 1520 1521 1522 1522 1523 1523 1522 1522 1522 1522 1523 1523 1523 1523 1522 1522 1522 1522 1522 1522 1522 1522 1521 1522 1521 1521 1522 1522 1522 1523 1523 1523 1522 1521 1521 1521 1520 1519 1518 1516 1514 1513
1516 1517 1518 1519 1520 1519 1519 1519 1520 1519 1520 1521 1521 1521 1521 1520 1520 1520 1520 1520 1519 1520 1520 1521 1520 1520 1519 1519 1519 1519 1519 1519 1520 1520 1519 1518 1517 1516 1515 1514 1513 1512 1510
1514 1514 1515 1515 1516 1516 1516 1517 1518 1518 1518 1518 1518 1518 1518 1518 1518 1518 1517 1517 1516 1516 1517 1517 1517 1517 1517 1516 1516 1516 1515 1515 1515 1515 1515 1514 1513 1511 1510 1510 1508 1508 1507
1510 1511 1511 1512 1512 1513 1514 1514 1515 1515 1515 1514 1514 1514 1515 1515 1515 1515 1514 1513 1513 1513 1513 1513 1513 1513 1513 1513 1513 1513 1513 1512 1511 1510 1509 1509 1508 1506 1505 1504 1503 1502 1500
1505 1506 1507 1508 1509 1509 1510 1510 1511 1511 1510 1510 1509 1510 1510 1511 1511 1511 1511 1511 1511 1510 1510 1511 1511 1511 1510 1510 1509 1509 1508 1508 1507 1505 1503 1502 1501 1500 1499 1498 1497 1495 1494
1498 1499 1500 1502 1503 1504 1505 1505 1505 1505 1505 1505 1505 1505 1506 1506 1506 1506 1506 1507 1508 1508 1507 1507 1507 1508 1507 1507 1506 1505 1503 1501 1500 1499 1497 1496 1494 1493 1492 1491 1490 1488 1487
1491 1491 1493 1494 1496 1497 1498 1498 1499 1500 1500 1500 1500 1500 1500 1500 1500 1500 1500 1500 1501 1501 1501 1501 1501 1502 1501 1502 1501 1500 1499 1496 1494 1493 1491 1490 1488 1486 1486 1485 1483 1481 1480
1484 1484 1485 1486 1487 1489 1490 1491 1493 1494 1495 1494 1494 1493 1493 1493 1493 1493 1493 1493 1493 1493 1494 1495 1495 1495 1494 1494 1494 1493 1493 1491 1488 1486 1485 1484 1482 1481 1480 1479 1477 1476 1475
1475 1476 1478 1479 1481 1482 1485 1486 1488 1489 1489 1488 1487 1486 1485 1485 1485 1484 1485 1486 1486 1487 1488 1490 1490 1491 1490 1491 1489 1489 1486 1485 1482 1479 1477 1476 1476 1475 1475 1476 1474 1472 1470
1469 1470 1473 1475 1477 1478 1479 1480 1480 1481 1480 1480 1479 1478 1478 1478 1478 1478 1478 1479 1479 1480 1479 1479 1480 1480 1481 1482 1482 1483 1482 1478 1476 1474 1472 1471 1471 1470 1471 1471 1469 1468 1466
1466 1466 1468 1471 1473 1475 1475 1474 1474 1474 1473 1474 1474 1473 1472 1472 1472 1472 1471 1472 1472 1472 1471 1471 1471 1472 1473 1474 1474 1473 1474 1475 1475 1470 1469 1466 1465 1465 1465 1465 1463 1463 1461
1466 1465 1465 1468 1470 1471 1471 1470 1470 1469 1469 1469 1467 1465 1464 1464 1464 1465 1465 1465 1464 1463 1462 1462 1462 1462 1462 1462 1463 1464 1465 1466 1466 1466 1462 1462 1461 1459 1459 1459 1458 1456 1455
1470 1467 1466 1466 1467 1466 1465 1464 1463 1462 1461 1460 1459 1458 1457 1456 1457 1457 1456 1456 1455 1453 1452 1451 1452 1453 1454 1453 1454 1454 1454 1454 1454 1454 1454 1454 1454 1452 1452 1451 1450 1449 1448